GW3084 Weather Reports


Display with metric or nautical units.
time (UTC)temp
F
wind
direction
speed
MPH
gust
MPH
rain 1hr
in
rain 24hr
in
rain mn
in
humidity
%
barometer
mb
20260831210022 92 268 3.0 9.0 0.00 0.06 0.06 57 1010.4
20260831205017 92 273 3.0 13.0 0.00 0.06 0.06 58 1010.5
20260831204114 85 255 2.0 8.0 0.00 0.06 0.06 65 1010.5
20260831203031 83 121 2.0 4.0 0.00 0.06 0.06 63 1010.7
20260831202028 85 108 2.0 6.0 0.00 0.06 0.06 59 1010.4
20260831201024 90 128 2.0 6.0 0.00 0.06 0.06 53 1010.4
20260831200043 91 203 2.0 10.0 0.00 0.06 0.06 54 1010.5
20260831195058 90 237 3.0 10.0 0.00 0.06 0.06 59 1010.6
20260831194035 83 176 2.0 10.0 0.00 0.06 0.06 64 1010.7
20260831193031 82 142 3.0 8.0 0.00 0.06 0.06 65 1010.7
20260831192028 82 132 3.0 7.0 0.00 0.06 0.06 65 1010.7
20260831191025 82 135 3.0 7.0 0.00 0.06 0.06 64 1010.8
20260831190021 83 135 3.0 8.0 0.00 0.06 0.06 63 1010.7
20260831185018 85 128 3.0 9.0 0.00 0.06 0.06 58 1010.7
20260831184035 88 145 3.0 8.0 0.00 0.06 0.06 57 1010.7
20260831183132 88 143 3.0 9.0 0.00 0.06 0.06 56 1011.0
20260831182028 85 169 3.0 11.0 0.00 0.06 0.06 60 1010.8
20260831181105 84 124 3.0 7.0 0.00 0.06 0.06 58 1010.9
20260831180023 86 110 2.0 7.0 0.00 0.06 0.06 55 1011.0
20260831175020 91 163 3.0 8.0 0.00 0.06 0.06 51 1011.1
20260831174036 91 255 3.0 11.0 0.00 0.06 0.06 53 1011.0
20260831173054 91 230 3.0 10.0 0.00 0.06 0.06 53 1011.2
20260831172029 90 234 4.0 10.0 0.00 0.06 0.06 54 1011.3
20260831171026 88 250 3.0 8.0 0.00 0.06 0.06 57 1011.3
20260831170023 86 191 3.0 8.0 0.00 0.06 0.06 58 1011.4
20260831165020 86 131 3.0 8.0 0.00 0.06 0.06 56 1011.4
20260831164016 88 184 3.0 7.0 0.00 0.06 0.06 55 1011.4
20260831163034 88 250 4.0 10.0 0.00 0.06 0.06 57 1011.5
20260831162031 87 224 3.0 10.0 0.00 0.06 0.06 58 1011.5
20260831161028 87 248 3.0 9.0 0.00 0.06 0.06 60 1011.7
20260831160106 87 243 3.0 8.0 0.00 0.06 0.06 59 1011.5
20260831155040 87 205 3.0 9.0 0.00 0.06 0.06 60 1011.6
20260831154018 86 221 3.0 9.0 0.00 0.06 0.06 61 1011.6
20260831153034 86 235 3.0 9.0 0.00 0.06 0.06 61 1011.6
20260831152030 84 225 3.0 9.0 0.00 0.06 0.06 64 1011.8
20260831151028 82 205 3.0 8.0 0.00 0.06 0.06 69 1011.7
20260831150024 80 170 2.0 7.0 0.00 0.06 0.06 73 1011.8
20260831145104 78 175 2.0 8.0 0.00 0.06 0.06 76 1011.9
20260831144019 77 165 2.0 6.0 0.00 0.06 0.06 79 1011.8
20260831143034 75 138 1.0 2.0 0.00 0.06 0.06 83 1011.8
20260831142032 72 153 0.0 1.0 0.00 0.06 0.06 88 1011.8
20260831141028 71 151 1.0 2.0 0.00 0.06 0.06 90 1011.8
20260831140025 70 157 1.0 2.0 0.00 0.06 0.06 91 1011.7
20260831135042 69 166 0.0 3.0 0.00 0.06 0.06 90 1011.7
20260831134018 69 142 1.0 3.0 0.00 0.06 0.06 91 1011.8
20260831133035 70 141 1.0 3.0 0.00 0.06 0.06 90 1011.8
20260831132032 71 134 1.0 3.0 0.00 0.06 0.06 89 1011.9
20260831131028 72 133 1.0 3.0 0.00 0.06 0.06 91 1011.8
20260831130025 72 176 2.0 6.0 0.00 0.06 0.06 93 1011.8
20260831125022 71 182 2.0 7.0 0.00 0.06 0.06 95 1012.0
20260831124040 70 194 2.0 7.0 0.00 0.06 0.06 97 1011.9
20260831123057 70 201 2.0 8.0 0.00 0.06 0.06 99 1011.9
20260831122032 69 194 3.0 9.0 0.01 0.06 0.06 99 1011.9
20260831121029 68 188 3.0 7.0 0.04 0.06 0.06 99 1011.8
20260831120026 67 193 2.0 7.0 0.04 0.06 0.06 99 1011.8
20260831115022 66 194 1.0 6.0 0.04 0.06 0.06 99 1011.8
20260831114019 65 178 1.0 6.0 0.04 0.06 0.06 99 1011.9
20260831113036 65 149 1.0 4.0 0.04 0.06 0.06 98 1012.2
20260831112034 66 128 2.0 6.0 0.03 0.05 0.05 98 1012.7
20260831111052 67 139 1.0 6.0 0.00 0.02 0.02 99 1012.8
20260831110026 68 130 2.0 6.0 0.00 0.02 0.02 98 1012.7
20260831105023 69 148 1.0 4.0 0.01 0.02 0.02 98 1012.8
20260831104020 69 144 1.0 4.0 0.01 0.02 0.02 97 1012.7
20260831103017 70 149 1.0 4.0 0.01 0.02 0.02 97 1012.8
20260831102034 70 178 1.0 6.0 0.01 0.02 0.02 96 1012.5
20260831101030 71 176 2.0 4.0 0.01 0.02 0.02 95 1012.5
20260831100047 71 198 2.0 4.0 0.01 0.02 0.02 93 1012.5
20260831095023 71 187 2.0 6.0 0.00 0.01 0.01 93 1012.7
20260831094019 71 185 1.0 3.0 0.00 0.01 0.01 94 1012.8
20260831093017 70 190 1.0 4.0 0.00 0.01 0.01 94 1012.9
20260831092055 70 182 1.0 4.0 0.00 0.01 0.01 94 1013.0
20260831091029 69 178 1.0 3.0 0.00 0.01 0.01 94 1013.1
20260831090027 69 161 1.0 3.0 0.00 0.01 0.01 95 1013.2
20260831085023 69 174 1.0 6.0 0.00 0.01 0.01 95 1013.4
20260831084020 68 169 2.0 6.0 0.00 0.01 0.01 96 1013.2
20260831083035 68 156 1.0 7.0 0.00 0.01 0.01 97 1013.4
20260831082031 67 162 2.0 4.0 0.00 0.01 0.01 96 1013.5
20260831081027 68 134 1.0 2.0 0.00 0.01 0.01 95 1013.3
20260831080023 68 162 1.0 3.0 0.00 0.01 0.01 94 1013.3
20260831075039 68 142 1.0 4.0 0.00 0.01 0.01 92 1013.4
20260831074015 70 136 1.0 3.0 0.00 0.01 0.01 92 1013.2
20260831073030 70 273 0.0 1.0 0.00 0.01 0.01 92 1013.3
20260831072027 70 273 0.0 1.0 0.01 0.01 0.01 91 1013.5
20260831071020 71 134 0.0 1.0 0.01 0.01 0.01 91 1013.8
20260831070019 71 195 0.0 1.0 0.01 0.01 0.01 91 1014.0
20260831065034 71 270 0.0 1.0 0.01 0.01 0.01 91 1014.4
20260831063028 71 272 0.0 3.0 0.01 0.01 0.01 90 1014.5
20260831062024 72 265 0.0 2.0 0.00 0.00 0.00 89 1014.6
20260831061023 72 279 1.0 4.0 0.00 0.00 0.00 88 1014.6
20260831060038 72 275 1.0 4.0 0.00 0.00 0.00 88 1014.6
20260831055032 72 255 0.0 2.0 0.00 0.00 0.00 88 1014.6
20260831054026 72 251 1.0 3.0 0.00 0.00 0.00 89 1014.5
20260831053102 71 232 0.0 2.0 0.00 0.00 0.00 89 1014.5
20260831052017 71 266 0.0 2.0 0.00 0.00 0.00 88 1014.2
20260831051034 71 204 0.0 1.0 0.00 0.00 0.00 88 1013.9
20260831050032 70 151 0.0 1.0 0.00 0.00 0.00 89 1013.8
20260831045027 70 252 0.0 1.0 0.00 0.00 0.00 88 1014.1
20260831044024 70 134 0.0 1.0 0.00 0.00 0.00 88 1013.8
20260831043042 70 132 0.0 1.0 0.00 0.00 0.00 87 1014.0
20260831042019 71 139 0.0 1.0 0.00 0.00 0.00 87 1014.1
20260831041034 70 137 0.0 1.0 0.00 0.00 0.00 86 1014.3
20260831040051 71 0.0 0.0 0.00 0.00 0.00 85 1014.5
20260831035028 71 133 0.0 1.0 0.00 0.00 0.00 85 1014.3
20260831034024 72 135 0.0 1.0 0.00 0.00 0.00 85 1013.9
20260831033021 72 122 0.0 1.0 0.00 0.00 0.00 84 1014.0
20260831032018 73 122 0.0 1.0 0.00 0.00 0.00 83 1014.0
20260831031036 73 127 0.0 1.0 0.00 0.00 0.00 81 1013.9
20260831030031 74 119 0.0 1.0 0.00 0.00 0.00 82 1013.9
20260831025049 74 256 0.0 1.0 0.00 0.00 0.00 82 1014.0
20260831024025 74 263 1.0 3.0 0.00 0.00 0.00 81 1014.0
20260831023022 75 265 1.0 4.0 0.00 0.00 0.00 81 1013.8
20260831022020 75 249 2.0 9.0 0.00 0.00 0.00 80 1013.9
20260831021015 75 241 2.0 6.0 0.00 0.00 0.00 79 1013.9
20260831020034 76 250 2.0 7.0 0.00 0.00 0.00 79 1014.0
20260831015029 76 228 2.0 8.0 0.00 0.00 0.00 78 1013.9
20260831014026 76 256 2.0 6.0 0.00 0.00 0.00 77 1013.7
20260831013023 76 243 2.0 7.0 0.00 0.00 0.00 77 1013.5
20260831012019 77 254 1.0 6.0 0.00 0.00 0.00 76 1013.5
20260831011016 77 267 1.0 7.0 0.00 0.00 0.00 76 1013.5
20260831010033 77 256 1.0 4.0 0.00 0.00 0.00 75 1013.2
20260831005030 78 252 1.0 7.0 0.00 0.00 0.00 75 1013.2
20260831004027 78 255 1.0 3.0 0.00 0.00 0.00 74 1013.0
20260831003023 78 267 1.0 3.0 0.00 0.00 0.00 73 1012.8
20260831002020 79 249 1.0 6.0 0.00 0.00 0.00 73 1012.7
20260831001017 79 247 2.0 4.0 0.00 0.00 0.00 72 1012.8
20260831000054 80 244 2.0 9.0 0.00 0.00 0.00 71 1012.8
20260830235031 80 235 2.0 6.0 0.00 0.00 0.00 70 1012.8
20260830234027 81 240 3.0 8.0 0.00 0.00 0.00 69 1012.8
20260830233024 81 210 2.0 6.0 0.00 0.00 0.00 68 1012.8
20260830232021 82 230 3.0 9.0 0.00 0.00 0.00 66 1012.7
20260830231018 83 244 2.0 4.0 0.00 0.00 0.00 65 1012.6
20260830230035 83 239 2.0 7.0 0.00 0.00 0.00 64 1012.4
20260830225032 84 239 3.0 8.0 0.00 0.00 0.00 63 1012.4
20260830224048 85 204 2.0 7.0 0.00 0.00 0.00 61 1012.1
20260830223025 85 245 1.0 4.0 0.00 0.00 0.00 61 1012.0
20260830222042 85 275 3.0 8.0 0.00 0.00 0.00 60 1012.1
20260830221019 86 248 2.0 8.0 0.00 0.00 0.00 60 1012.2
20260830220016 86 265 3.0 7.0 0.00 0.00 0.00 58 1012.1
20260830215032 87 272 2.0 9.0 0.00 0.00 0.00 59 1012.0
20260830214029 87 258 2.0 7.0 0.00 0.00 0.00 59 1011.9
20260830213026 87 262 2.0 6.0 0.00 0.00 0.00 58 1011.9
20260830212143 88 267 2.0 4.0 0.00 0.00 0.00 56 1011.7
20260830211021 87 291 2.0 9.0 0.00 0.00 0.00 58 1011.7